| time (UTC) | temp C | wind direction | speed KPH | gust KPH | rain 1hr cm | rain 24hr cm | rain mn cm | humidity % | barometer mb |
| 20260904052512 | 13 | 211 | 0.0 | 1.6 | 0.00 | 0.05 | 0.03 | 92 | 1004.2 |
| 20260904052012 | 13 | 211 | 0.0 | 1.6 | 0.00 | 0.05 | 0.03 | 92 | 1004.2 |
| 20260904051525 | 13 | 211 | 0.0 | 1.6 | 0.00 | 0.05 | 0.03 | 91 | 1004.3 |
| 20260904051010 | 13 | 211 | 0.0 | 3.2 | 0.00 | 0.05 | 0.03 | 91 | 1004.3 |
| 20260904050509 | 13 | 211 | 0.0 | 3.2 | 0.00 | 0.05 | 0.03 | 91 | 1004.3 |
| 20260904050009 | 13 | 211 | 0.0 | 3.2 | 0.00 | 0.05 | 0.03 | 91 | 1004.3 |
| 20260904045509 | 13 | 211 | 0.0 | 3.2 | 0.00 | 0.05 | 0.03 | 91 | 1004.4 |
| 20260904045011 | 13 | 211 | 0.0 | 3.2 | 0.00 | 0.05 | 0.03 | 91 | 1004.4 |
| 20260904044508 | 13 | 211 | 0.0 | 4.8 | 0.00 | 0.05 | 0.03 | 91 | 1004.5 |
| 20260904044007 | 13 | 229 | 0.0 | 6.4 | 0.00 | 0.05 | 0.03 | 91 | 1004.6 |
| 20260904043508 | 13 | 254 | 1.6 | 6.4 | 0.00 | 0.05 | 0.03 | 91 | 1004.7 |
| 20260904043010 | 13 | 263 | 0.0 | 4.8 | 0.00 | 0.05 | 0.03 | 91 | 1004.8 |
| 20260904042510 | 13 | 202 | 0.0 | 6.4 | 0.00 | 0.05 | 0.03 | 91 | 1004.8 |
| 20260904042006 | 13 | 269 | 0.0 | 6.4 | 0.00 | 0.05 | 0.03 | 91 | 1004.8 |
| 20260904041513 | 13 | 161 | 0.0 | 4.8 | 0.00 | 0.05 | 0.03 | 91 | 1004.7 |
| 20260904041005 | 13 | 214 | 1.6 | 4.8 | 0.00 | 0.05 | 0.03 | 91 | 1004.6 |
| 20260904040508 | 13 | 315 | 0.0 | 4.8 | 0.00 | 0.05 | 0.03 | 91 | 1004.7 |
| 20260904040006 | 13 | 294 | 0.0 | 4.8 | 0.00 | 0.05 | 0.03 | 91 | 1004.8 |
| 20260904035504 | 13 | 188 | 0.0 | 6.4 | 0.00 | 0.05 | 0.03 | 91 | 1004.8 |
| 20260904035007 | 13 | 184 | 0.0 | 4.8 | 0.00 | 0.05 | 0.03 | 90 | 1004.9 |
| 20260904034505 | 13 | 331 | 0.0 | 4.8 | 0.00 | 0.05 | 0.03 | 90 | 1004.8 |
| 20260904034007 | 13 | 241 | 1.6 | 8.0 | 0.00 | 0.05 | 0.03 | 90 | 1004.8 |
| 20260904033502 | 13 | 233 | 1.6 | 8.0 | 0.00 | 0.05 | 0.03 | 90 | 1005.1 |
| 20260904033002 | 13 | 187 | 1.6 | 8.0 | 0.00 | 0.05 | 0.03 | 90 | 1005.1 |
| 20260904032502 | 13 | 261 | 0.0 | 8.0 | 0.00 | 0.05 | 0.03 | 90 | 1005.1 |
| 20260904032100 | 13 | 314 | 1.6 | 8.0 | 0.00 | 0.05 | 0.03 | 90 | 1005.1 |
| 20260904031600 | 13 | 304 | 1.6 | 11.3 | 0.00 | 0.05 | 0.03 | 90 | 1005.2 |
| 20260904031100 | 13 | 223 | 3.2 | 11.3 | 0.00 | 0.05 | 0.03 | 90 | 1005.1 |
| 20260904030600 | 13 | 257 | 1.6 | 11.3 | 0.00 | 0.05 | 0.03 | 90 | 1005.1 |
| 20260904025602 | 13 | 159 | 3.2 | 12.9 | 0.00 | 0.05 | 0.03 | 90 | 1005.1 |
| 20260904025059 | 13 | 232 | 3.2 | 12.9 | 0.00 | 0.05 | 0.03 | 90 | 1005.2 |
| 20260904024600 | 13 | 333 | 1.6 | 14.5 | 0.00 | 0.05 | 0.03 | 90 | 1005.2 |
| 20260904024057 | 13 | 290 | 3.2 | 14.5 | 0.00 | 0.05 | 0.03 | 90 | 1005.3 |
| 20260904023557 | 13 | 186 | 0.0 | 6.4 | 0.00 | 0.05 | 0.03 | 90 | 1005.4 |
| 20260904023058 | 13 | 266 | 3.2 | 8.0 | 0.00 | 0.05 | 0.03 | 90 | 1005.3 |
| 20260904022557 | 13 | 232 | 1.6 | 8.0 | 0.00 | 0.05 | 0.03 | 90 | 1005.3 |
| 20260904022055 | 13 | 203 | 1.6 | 8.0 | 0.00 | 0.05 | 0.03 | 90 | 1005.4 |
| 20260904021556 | 13 | 276 | 1.6 | 11.3 | 0.00 | 0.05 | 0.03 | 90 | 1005.4 |
| 20260904021056 | 13 | 188 | 3.2 | 12.9 | 0.00 | 0.05 | 0.03 | 90 | 1005.5 |
| 20260904020555 | 13 | 268 | 3.2 | 12.9 | 0.00 | 0.05 | 0.03 | 90 | 1005.7 |
| 20260904020055 | 13 | 187 | 0.0 | 8.0 | 0.00 | 0.05 | 0.03 | 90 | 1005.5 |
| 20260904015553 | 13 | 298 | 3.2 | 8.0 | 0.00 | 0.05 | 0.03 | 90 | 1005.5 |
| 20260904015053 | 13 | 250 | 1.6 | 8.0 | 0.00 | 0.05 | 0.03 | 90 | 1005.7 |
| 20260904014559 | 13 | 185 | 3.2 | 16.1 | 0.00 | 0.05 | 0.03 | 90 | 1005.7 |
| 20260904014053 | 13 | 270 | 0.0 | 16.1 | 0.00 | 0.05 | 0.03 | 90 | 1005.9 |
| 20260904013551 | 13 | 260 | 1.6 | 14.5 | 0.00 | 0.05 | 0.03 | 90 | 1005.9 |
| 20260904013055 | 13 | 292 | 1.6 | 14.5 | 0.00 | 0.05 | 0.03 | 90 | 1005.9 |
| 20260904012552 | 13 | 274 | 3.2 | 12.9 | 0.00 | 0.05 | 0.03 | 90 | 1006.0 |
| 20260904012051 | 13 | 164 | 3.2 | 12.9 | 0.00 | 0.05 | 0.03 | 91 | 1006.0 |
| 20260904011551 | 14 | 188 | 1.6 | 17.7 | 0.00 | 0.05 | 0.03 | 91 | 1006.1 |
| 20260904011049 | 14 | 240 | 3.2 | 17.7 | 0.00 | 0.05 | 0.03 | 91 | 1006.1 |
| 20260904010548 | 14 | 167 | 3.2 | 11.3 | 0.00 | 0.05 | 0.03 | 91 | 1006.0 |
| 20260904010049 | 14 | 161 | 1.6 | 14.5 | 0.00 | 0.05 | 0.03 | 91 | 1006.0 |
| 20260904005547 | 14 | 290 | 3.2 | 14.5 | 0.00 | 0.08 | 0.03 | 92 | 1006.0 |
| 20260904005047 | 14 | 220 | 3.2 | 14.5 | 0.00 | 0.08 | 0.03 | 92 | 1006.0 |
| 20260904004647 | 14 | 192 | 1.6 | 14.5 | 0.03 | 0.08 | 0.03 | 92 | 1006.1 |
| 20260904004049 | 14 | 286 | 1.6 | 14.5 | 0.03 | 0.08 | 0.03 | 92 | 1006.0 |
| 20260904003550 | 14 | 253 | 4.8 | 12.9 | 0.03 | 0.08 | 0.03 | 92 | 1006.0 |
| 20260904003046 | 14 | 305 | 1.6 | 19.3 | 0.03 | 0.08 | 0.03 | 92 | 1006.1 |
| 20260904002547 | 14 | 263 | 3.2 | 8.0 | 0.03 | 0.08 | 0.03 | 92 | 1006.0 |
| 20260904002045 | 14 | 295 | 3.2 | 14.5 | 0.03 | 0.08 | 0.03 | 92 | 1006.2 |
| 20260904001544 | 14 | 246 | 1.6 | 14.5 | 0.03 | 0.08 | 0.03 | 92 | 1006.1 |
| 20260904001043 | 14 | 219 | 4.8 | 14.5 | 0.03 | 0.08 | 0.03 | 92 | 1006.1 |
| 20260904000543 | 14 | 261 | 3.2 | 14.5 | 0.03 | 0.08 | 0.03 | 92 | 1006.2 |
| 20260904000043 | 14 | 223 | 4.8 | 14.5 | 0.03 | 0.08 | 0.03 | 92 | 1006.2 |
| 20260903235542 | 14 | 192 | 3.2 | 8.0 | 0.03 | 0.08 | 0.03 | 92 | 1006.2 |
| 20260903235042 | 14 | 279 | 1.6 | 9.7 | 0.00 | 0.05 | 0.00 | 92 | 1006.3 |
| 20260903234542 | 14 | 88 | 1.6 | 12.9 | 0.00 | 0.05 | 0.00 | 92 | 1006.2 |
| 20260903234042 | 14 | 288 | 4.8 | 12.9 | 0.00 | 0.05 | 0.00 | 92 | 1006.3 |
| 20260903233541 | 14 | 257 | 3.2 | 8.0 | 0.00 | 0.05 | 0.00 | 92 | 1006.3 |
| 20260903233042 | 14 | 202 | 1.6 | 8.0 | 0.00 | 0.05 | 0.00 | 92 | 1006.2 |
| 20260903232541 | 14 | 129 | 0.0 | 6.4 | 0.00 | 0.05 | 0.00 | 92 | 1006.1 |
| 20260903232041 | 14 | 191 | 1.6 | 12.9 | 0.00 | 0.05 | 0.00 | 92 | 1006.2 |
| 20260903231557 | 14 | 263 | 1.6 | 12.9 | 0.00 | 0.05 | 0.00 | 92 | 1006.2 |
| 20260903231040 | 14 | 351 | 1.6 | 9.7 | 0.00 | 0.05 | 0.00 | 92 | 1006.4 |
| 20260903230540 | 14 | 191 | 1.6 | 9.7 | 0.00 | 0.05 | 0.00 | 92 | 1006.4 |
| 20260903230041 | 14 | 302 | 1.6 | 11.3 | 0.00 | 0.05 | 0.00 | 92 | 1006.3 |
| 20260903225540 | 14 | 272 | 3.2 | 6.4 | 0.00 | 0.05 | 0.00 | 92 | 1006.3 |
| 20260903225039 | 14 | 246 | 1.6 | 11.3 | 0.00 | 0.05 | 0.00 | 92 | 1006.4 |
| 20260903224539 | 14 | 136 | 1.6 | 11.3 | 0.00 | 0.05 | 0.00 | 92 | 1006.2 |
| 20260903224042 | 14 | 233 | 1.6 | 8.0 | 0.00 | 0.05 | 0.00 | 92 | 1006.3 |
| 20260903223539 | 14 | 220 | 3.2 | 12.9 | 0.00 | 0.05 | 0.00 | 92 | 1006.3 |
| 20260903223044 | 14 | 232 | 4.8 | 12.9 | 0.00 | 0.05 | 0.00 | 93 | 1006.2 |
| 20260903222537 | 14 | 319 | 1.6 | 9.7 | 0.00 | 0.05 | 0.00 | 92 | 1006.3 |
| 20260903222037 | 14 | 194 | 1.6 | 12.9 | 0.00 | 0.05 | 0.00 | 92 | 1006.5 |
| 20260903221539 | 14 | 302 | 3.2 | 12.9 | 0.00 | 0.05 | 0.00 | 92 | 1006.5 |
| 20260903221036 | 14 | 290 | 3.2 | 9.7 | 0.00 | 0.05 | 0.00 | 92 | 1006.5 |
| 20260903220537 | 14 | 285 | 1.6 | 8.0 | 0.00 | 0.05 | 0.00 | 92 | 1006.4 |
| 20260903220056 | 14 | 192 | 3.2 | 14.5 | 0.00 | 0.05 | 0.00 | 92 | 1006.6 |
| 20260903215537 | 14 | 263 | 4.8 | 14.5 | 0.00 | 0.05 | 0.05 | 92 | 1006.6 |
| 20260903215033 | 14 | 245 | 3.2 | 14.5 | 0.00 | 0.05 | 0.05 | 92 | 1006.6 |
| 20260903214534 | 14 | 317 | 1.6 | 14.5 | 0.00 | 0.05 | 0.05 | 92 | 1006.5 |
| 20260903214033 | 14 | 336 | 1.6 | 8.0 | 0.00 | 0.05 | 0.05 | 92 | 1006.5 |
| 20260903213532 | 14 | 149 | 3.2 | 11.3 | 0.00 | 0.05 | 0.05 | 92 | 1006.4 |
| 20260903213033 | 14 | 270 | 3.2 | 11.3 | 0.00 | 0.05 | 0.05 | 92 | 1006.5 |
| 20260903212533 | 14 | 323 | 3.2 | 17.7 | 0.00 | 0.05 | 0.05 | 92 | 1006.4 |
| 20260903212034 | 14 | 195 | 1.6 | 17.7 | 0.00 | 0.05 | 0.05 | 92 | 1006.4 |
| 20260903211532 | 14 | 221 | 3.2 | 16.1 | 0.00 | 0.05 | 0.05 | 92 | 1006.4 |
| 20260903211031 | 15 | 185 | 3.2 | 16.1 | 0.00 | 0.05 | 0.05 | 92 | 1006.3 |
| 20260903210536 | 15 | 229 | 3.2 | 16.1 | 0.03 | 0.05 | 0.05 | 92 | 1006.4 |
| 20260903210035 | 15 | 213 | 4.8 | 14.5 | 0.03 | 0.05 | 0.05 | 92 | 1006.5 |
| 20260903205531 | 15 | 204 | 3.2 | 11.3 | 0.03 | 0.05 | 0.05 | 92 | 1006.4 |
| 20260903205031 | 15 | 234 | 1.6 | 11.3 | 0.03 | 0.05 | 0.05 | 92 | 1006.4 |
| 20260903204531 | 15 | 286 | 3.2 | 12.9 | 0.03 | 0.05 | 0.05 | 92 | 1006.4 |
| 20260903204032 | 15 | 267 | 4.8 | 12.9 | 0.03 | 0.05 | 0.05 | 92 | 1006.4 |
| 20260903203533 | 15 | 186 | 3.2 | 16.1 | 0.03 | 0.05 | 0.05 | 92 | 1006.4 |
| 20260903203030 | 15 | 229 | 3.2 | 16.1 | 0.03 | 0.05 | 0.05 | 92 | 1006.3 |
| 20260903202534 | 15 | 196 | 4.8 | 17.7 | 0.03 | 0.05 | 0.05 | 92 | 1006.3 |
| 20260903202032 | 15 | 169 | 3.2 | 16.1 | 0.03 | 0.05 | 0.05 | 93 | 1006.2 |
| 20260903201529 | 15 | 345 | 3.2 | 19.3 | 0.03 | 0.05 | 0.05 | 93 | 1006.3 |
| 20260903201028 | 15 | 288 | 3.2 | 19.3 | 0.03 | 0.05 | 0.05 | 93 | 1006.3 |
| 20260903200528 | 15 | 327 | 4.8 | 12.9 | 0.00 | 0.05 | 0.05 | 93 | 1006.3 |
| 20260903200041 | 15 | 298 | 3.2 | 12.9 | 0.00 | 0.05 | 0.05 | 93 | 1006.3 |
| 20260903195529 | 15 | 265 | 1.6 | 12.9 | 0.00 | 0.05 | 0.05 | 93 | 1006.3 |
| 20260903195028 | 15 | 279 | 3.2 | 14.5 | 0.00 | 0.05 | 0.05 | 93 | 1006.3 |
| 20260903194540 | 15 | 227 | 3.2 | 14.5 | 0.00 | 0.05 | 0.05 | 93 | 1006.3 |
| 20260903194027 | 15 | 303 | 4.8 | 14.5 | 0.00 | 0.05 | 0.05 | 93 | 1006.4 |
| 20260903193529 | 15 | 287 | 4.8 | 17.7 | 0.00 | 0.05 | 0.05 | 93 | 1006.3 |
| 20260903193027 | 15 | 300 | 6.4 | 17.7 | 0.00 | 0.05 | 0.05 | 93 | 1006.4 |
| 20260903192530 | 15 | 231 | 3.2 | 16.1 | 0.00 | 0.05 | 0.05 | 93 | 1006.4 |
| 20260903192026 | 15 | 236 | 4.8 | 12.9 | 0.00 | 0.05 | 0.05 | 93 | 1006.4 |
| 20260903191526 | 15 | 189 | 3.2 | 17.7 | 0.00 | 0.05 | 0.05 | 93 | 1006.5 |
| 20260903191027 | 15 | 283 | 1.6 | 17.7 | 0.00 | 0.05 | 0.05 | 93 | 1006.4 |
| 20260903190528 | 15 | 98 | 3.2 | 14.5 | 0.00 | 0.05 | 0.05 | 93 | 1006.3 |
| 20260903190027 | 15 | 161 | 3.2 | 14.5 | 0.00 | 0.05 | 0.05 | 93 | 1006.2 |
| 20260903185527 | 15 | 200 | 3.2 | 12.9 | 0.00 | 0.05 | 0.05 | 93 | 1006.2 |
| 20260903185025 | 16 | 216 | 3.2 | 14.5 | 0.00 | 0.05 | 0.05 | 93 | 1006.1 |
| 20260903184525 | 16 | 272 | 4.8 | 17.7 | 0.00 | 0.05 | 0.05 | 93 | 1006.0 |
| 20260903184024 | 16 | 316 | 3.2 | 19.3 | 0.00 | 0.05 | 0.05 | 93 | 1006.1 |
| 20260903183525 | 16 | 307 | 3.2 | 14.5 | 0.00 | 0.05 | 0.05 | 94 | 1006.1 |
| 20260903183037 | 16 | 286 | 4.8 | 14.5 | 0.00 | 0.05 | 0.05 | 94 | 1006.1 |
| 20260903182529 | 16 | 292 | 3.2 | 12.9 | 0.00 | 0.05 | 0.05 | 94 | 1006.0 |
| 20260903182025 | 16 | 268 | 4.8 | 12.9 | 0.00 | 0.05 | 0.05 | 94 | 1006.1 |
| 20260903181527 | 16 | 333 | 3.2 | 11.3 | 0.00 | 0.05 | 0.05 | 94 | 1006.1 |
| 20260903181023 | 16 | 290 | 3.2 | 16.1 | 0.00 | 0.05 | 0.05 | 94 | 1006.0 |
| 20260903180523 | 16 | 167 | 3.2 | 20.9 | 0.00 | 0.05 | 0.05 | 94 | 1005.9 |
| 20260903180033 | 16 | 229 | 3.2 | 20.9 | 0.00 | 0.05 | 0.05 | 94 | 1005.9 |
| 20260903175522 | 16 | 311 | 3.2 | 14.5 | 0.00 | 0.05 | 0.05 | 94 | 1005.9 |
| 20260903175023 | 16 | 178 | 1.6 | 9.7 | 0.00 | 0.05 | 0.05 | 94 | 1005.8 |
| 20260903174525 | 16 | 283 | 1.6 | 14.5 | 0.00 | 0.05 | 0.05 | 94 | 1005.8 |
| 20260903174023 | 16 | 266 | 4.8 | 14.5 | 0.00 | 0.05 | 0.05 | 94 | 1005.8 |
| 20260903173522 | 16 | 252 | 1.6 | 11.3 | 0.00 | 0.05 | 0.05 | 94 | 1005.7 |
| 20260903173023 | 16 | 178 | 3.2 | 11.3 | 0.00 | 0.05 | 0.05 | 94 | 1005.5 |
| 20260903172522 | 16 | 171 | 3.2 | 14.5 | 0.00 | 0.05 | 0.05 | 94 | 1005.4 |
| 20260903172022 | 16 | 292 | 3.2 | 16.1 | 0.00 | 0.05 | 0.05 | 94 | 1005.4 |
| 20260903171526 | 16 | 304 | 4.8 | 16.1 | 0.00 | 0.05 | 0.05 | 94 | 1005.4 |
| 20260903171022 | 17 | 232 | 3.2 | 17.7 | 0.00 | 0.05 | 0.05 | 94 | 1005.4 |
| 20260903170521 | 17 | 213 | 3.2 | 17.7 | 0.00 | 0.05 | 0.05 | 94 | 1005.4 |
| 20260903170023 | 17 | 292 | 3.2 | 8.0 | 0.00 | 0.05 | 0.05 | 95 | 1005.2 |
| 20260903165521 | 17 | 176 | 1.6 | 22.5 | 0.00 | 0.05 | 0.05 | 95 | 1005.3 |
| 20260903165020 | 17 | 227 | 4.8 | 22.5 | 0.00 | 0.05 | 0.05 | 95 | 1005.2 |
| 20260903164520 | 17 | 230 | 8.0 | 20.9 | 0.00 | 0.05 | 0.05 | 95 | 1005.1 |
| 20260903164022 | 17 | 281 | 3.2 | 14.5 | 0.00 | 0.05 | 0.05 | 95 | 1005.2 |
| 20260903163519 | 17 | 261 | 3.2 | 12.9 | 0.00 | 0.05 | 0.05 | 96 | 1005.1 |
| 20260903163020 | 17 | 227 | 3.2 | 16.1 | 0.00 | 0.05 | 0.05 | 96 | 1005.0 |
| 20260903162520 | 17 | 243 | 4.8 | 17.7 | 0.00 | 0.05 | 0.05 | 96 | 1005.0 |
| 20260903162019 | 17 | 246 | 1.6 | 17.7 | 0.00 | 0.05 | 0.05 | 96 | 1004.9 |
| 20260903161527 | 17 | 252 | 4.8 | 14.5 | 0.00 | 0.05 | 0.05 | 96 | 1005.0 |
| 20260903161019 | 17 | 143 | 3.2 | 12.9 | 0.00 | 0.05 | 0.05 | 96 | 1004.9 |
| 20260903160519 | 17 | 198 | 3.2 | 14.5 | 0.00 | 0.05 | 0.05 | 96 | 1004.8 |
| 20260903160021 | 17 | 293 | 3.2 | 14.5 | 0.00 | 0.05 | 0.05 | 96 | 1004.9 |
| 20260903155520 | 17 | 200 | 3.2 | 12.9 | 0.00 | 0.05 | 0.05 | 96 | 1004.9 |
| 20260903155021 | 17 | 306 | 3.2 | 9.7 | 0.00 | 0.05 | 0.05 | 96 | 1004.9 |
| 20260903154619 | 17 | 214 | 3.2 | 11.3 | 0.00 | 0.05 | 0.05 | 96 | 1004.9 |
| 20260903154021 | 17 | 217 | 1.6 | 12.9 | 0.00 | 0.05 | 0.05 | 96 | 1005.0 |
| 20260903153518 | 17 | 257 | 3.2 | 12.9 | 0.00 | 0.05 | 0.05 | 96 | 1005.0 |
| 20260903153017 | 17 | 304 | 3.2 | 12.9 | 0.00 | 0.05 | 0.05 | 97 | 1005.1 |
| 20260903152517 | 17 | 192 | 4.8 | 12.9 | 0.00 | 0.05 | 0.05 | 96 | 1005.0 |
| 20260903152020 | 17 | 278 | 1.6 | 9.7 | 0.00 | 0.05 | 0.05 | 96 | 1005.0 |
| 20260903151515 | 17 | 211 | 1.6 | 8.0 | 0.00 | 0.05 | 0.05 | 97 | 1005.0 |
| 20260903151015 | 17 | 186 | 1.6 | 8.0 | 0.00 | 0.05 | 0.05 | 97 | 1004.9 |
| 20260903150513 | 17 | 219 | 1.6 | 8.0 | 0.00 | 0.05 | 0.05 | 97 | 1005.1 |
| 20260903150016 | 17 | 292 | 1.6 | 9.7 | 0.00 | 0.05 | 0.05 | 97 | 1005.1 |
| 20260903145516 | 17 | 332 | 1.6 | 6.4 | 0.00 | 0.05 | 0.05 | 97 | 1005.2 |
| 20260903145014 | 17 | 248 | 0.0 | 3.2 | 0.00 | 0.05 | 0.05 | 97 | 1005.2 |
| 20260903144513 | 17 | 244 | 0.0 | 3.2 | 0.00 | 0.05 | 0.05 | 97 | 1005.1 |
| 20260903144014 | 17 | 244 | 0.0 | 1.6 | 0.00 | 0.05 | 0.05 | 97 | 1005.2 |
| 20260903143513 | 17 | 244 | 0.0 | 4.8 | 0.00 | 0.05 | 0.05 | 97 | 1005.2 |
| 20260903143012 | 17 | 244 | 1.6 | 4.8 | 0.00 | 0.05 | 0.05 | 97 | 1005.3 |
| 20260903142512 | 17 | 217 | 1.6 | 11.3 | 0.00 | 0.05 | 0.05 | 97 | 1005.3 |
| 20260903142016 | 17 | 296 | 3.2 | 14.5 | 0.00 | 0.05 | 0.05 | 97 | 1005.2 |
| 20260903141511 | 17 | 202 | 6.4 | 14.5 | 0.00 | 0.05 | 0.05 | 97 | 1005.2 |
| 20260903141011 | 17 | 202 | 3.2 | 11.3 | 0.00 | 0.05 | 0.05 | 97 | 1005.2 |
| 20260903140510 | 17 | 182 | 3.2 | 11.3 | 0.00 | 0.05 | 0.05 | 97 | 1005.2 |
| 20260903140014 | 17 | 185 | 0.0 | 4.8 | 0.00 | 0.05 | 0.05 | 97 | 1005.3 |
| 20260903135508 | 17 | 185 | 1.6 | 6.4 | 0.00 | 0.05 | 0.05 | 97 | 1005.5 |
| 20260903135007 | 17 | 219 | 1.6 | 6.4 | 0.00 | 0.05 | 0.05 | 97 | 1005.6 |
| 20260903134507 | 17 | 202 | 0.0 | 4.8 | 0.00 | 0.05 | 0.05 | 97 | 1005.7 |
| 20260903134007 | 17 | 203 | 1.6 | 4.8 | 0.00 | 0.05 | 0.05 | 97 | 1005.7 |
| 20260903133506 | 16 | 175 | 0.0 | 3.2 | 0.00 | 0.05 | 0.05 | 97 | 1005.6 |
| 20260903133005 | 16 | 175 | 0.0 | 1.6 | 0.00 | 0.05 | 0.05 | 97 | 1005.6 |
| 20260903132504 | 16 | 175 | 0.0 | 0.0 | 0.00 | 0.05 | 0.05 | 97 | 1005.9 |
| 20260903132003 | 16 | 175 | 0.0 | 1.6 | 0.00 | 0.05 | 0.05 | 97 | 1006.0 |
| 20260903131506 | 16 | 175 | 0.0 | 3.2 | 0.00 | 0.05 | 0.05 | 97 | 1006.0 |
| 20260903131002 | 16 | 175 | 0.0 | 3.2 | 0.00 | 0.05 | 0.05 | 96 | 1006.1 |
| 20260903130501 | 16 | 175 | 0.0 | 4.8 | 0.00 | 0.05 | 0.05 | 96 | 1006.1 |
| 20260903130003 | 16 | 175 | 1.6 | 4.8 | 0.00 | 0.05 | 0.05 | 96 | 1006.2 |
| 20260903125502 | 16 | 164 | 0.0 | 4.8 | 0.00 | 0.05 | 0.05 | 96 | 1006.2 |
| 20260903125002 | 16 | 164 | 0.0 | 3.2 | 0.00 | 0.05 | 0.05 | 96 | 1006.1 |
| 20260903124501 | 16 | 164 | 0.0 | 4.8 | 0.00 | 0.05 | 0.05 | 96 | 1006.0 |
| 20260903124001 | 16 | 164 | 1.6 | 4.8 | 0.00 | 0.05 | 0.05 | 96 | 1006.3 |
| 20260903123600 | 16 | 207 | 1.6 | 6.4 | 0.00 | 0.05 | 0.05 | 96 | 1006.4 |
| 20260903123100 | 16 | 201 | 3.2 | 6.4 | 0.00 | 0.05 | 0.05 | 96 | 1006.2 |
| 20260903122601 | 16 | 188 | 3.2 | 6.4 | 0.00 | 0.05 | 0.05 | 96 | 1006.0 |
| 20260903122058 | 16 | 173 | 0.0 | 4.8 | 0.00 | 0.05 | 0.05 | 97 | 1006.2 |
| 20260903121600 | 16 | 163 | 0.0 | 8.0 | 0.00 | 0.05 | 0.05 | 97 | 1006.6 |
| 20260903121056 | 16 | 186 | 3.2 | 8.0 | 0.00 | 0.05 | 0.05 | 96 | 1006.7 |
| 20260903120558 | 16 | 215 | 4.8 | 9.7 | 0.00 | 0.05 | 0.05 | 96 | 1006.7 |
| 20260903120056 | 16 | 182 | 1.6 | 8.0 | 0.00 | 0.05 | 0.05 | 96 | 1006.7 |
| 20260903115554 | 16 | 196 | 1.6 | 9.7 | 0.00 | 0.05 | 0.05 | 96 | 1006.8 |
| 20260903115054 | 16 | 198 | 4.8 | 9.7 | 0.00 | 0.05 | 0.05 | 96 | 1006.8 |
| 20260903114553 | 16 | 181 | 1.6 | 9.7 | 0.00 | 0.05 | 0.05 | 96 | 1006.9 |
| 20260903114052 | 16 | 161 | 3.2 | 9.7 | 0.00 | 0.05 | 0.05 | 96 | 1007.1 |
| 20260903113557 | 16 | 188 | 3.2 | 8.0 | 0.00 | 0.05 | 0.05 | 96 | 1007.0 |
| 20260903113052 | 16 | 176 | 3.2 | 9.7 | 0.00 | 0.05 | 0.05 | 96 | 1007.1 |
| 20260903112554 | 16 | 211 | 3.2 | 9.7 | 0.00 | 0.05 | 0.05 | 96 | 1007.1 |
| 20260903112050 | 16 | 165 | 4.8 | 11.3 | 0.00 | 0.05 | 0.05 | 96 | 1007.1 |
| 20260903111550 | 16 | 198 | 3.2 | 11.3 | 0.00 | 0.05 | 0.05 | 96 | 1007.2 |
| 20260903111050 | 16 | 167 | 4.8 | 11.3 | 0.00 | 0.05 | 0.05 | 96 | 1007.1 |
| 20260903110548 | 16 | 210 | 4.8 | 11.3 | 0.00 | 0.05 | 0.05 | 96 | 1007.2 |
| 20260903110048 | 16 | 188 | 3.2 | 6.4 | 0.00 | 0.05 | 0.05 | 96 | 1007.3 |
| 20260903105547 | 16 | 159 | 1.6 | 9.7 | 0.03 | 0.05 | 0.05 | 96 | 1007.4 |
| 20260903105047 | 16 | 197 | 3.2 | 9.7 | 0.03 | 0.05 | 0.05 | 96 | 1007.5 |
| 20260903104546 | 16 | 182 | 1.6 | 8.0 | 0.03 | 0.05 | 0.05 | 96 | 1007.5 |
| 20260903104045 | 16 | 161 | 3.2 | 9.7 | 0.03 | 0.05 | 0.05 | 96 | 1007.7 |
| 20260903103544 | 16 | 173 | 4.8 | 9.7 | 0.03 | 0.05 | 0.05 | 96 | 1007.7 |
| 20260903103045 | 15 | 183 | 4.8 | 11.3 | 0.03 | 0.05 | 0.05 | 96 | 1007.9 |
| 20260903102545 | 15 | 192 | 4.8 | 11.3 | 0.03 | 0.05 | 0.05 | 96 | 1007.9 |
| 20260903102042 | 15 | 158 | 4.8 | 11.3 | 0.03 | 0.05 | 0.05 | 96 | 1008.0 |
| 20260903101542 | 15 | 180 | 3.2 | 9.7 | 0.03 | 0.05 | 0.05 | 96 | 1008.0 |
| 20260903101041 | 15 | 209 | 4.8 | 11.3 | 0.03 | 0.05 | 0.05 | 96 | 1008.2 |
| 20260903100541 | 15 | 209 | 6.4 | 11.3 | 0.03 | 0.05 | 0.05 | 96 | 1008.2 |
| 20260903100040 | 15 | 153 | 3.2 | 16.1 | 0.03 | 0.05 | 0.05 | 96 | 1008.3 |
| 20260903095539 | 15 | 200 | 6.4 | 16.1 | 0.00 | 0.03 | 0.03 | 97 | 1008.4 |
| 20260903095040 | 15 | 218 | 3.2 | 12.9 | 0.00 | 0.03 | 0.03 | 97 | 1008.5 |
| 20260903094538 | 15 | 223 | 1.6 | 12.9 | 0.00 | 0.03 | 0.03 | 97 | 1008.4 |
| 20260903094038 | 15 | 196 | 4.8 | 11.3 | 0.00 | 0.03 | 0.03 | 97 | 1008.6 |
| 20260903093538 | 15 | 199 | 4.8 | 9.7 | 0.00 | 0.03 | 0.03 | 97 | 1008.7 |
| 20260903093035 | 15 | 257 | 3.2 | 9.7 | 0.00 | 0.03 | 0.03 | 97 | 1008.8 |
| 20260903092534 | 15 | 144 | 3.2 | 11.3 | 0.00 | 0.03 | 0.03 | 97 | 1008.9 |
| 20260903092032 | 15 | 186 | 3.2 | 11.3 | 0.00 | 0.03 | 0.03 | 97 | 1008.9 |
| 20260903091546 | 15 | 187 | 3.2 | 11.3 | 0.00 | 0.03 | 0.03 | 97 | 1009.1 |
| 20260903091031 | 15 | 192 | 4.8 | 14.5 | 0.00 | 0.03 | 0.03 | 97 | 1009.2 |
| 20260903090531 | 15 | 161 | 3.2 | 14.5 | 0.00 | 0.03 | 0.03 | 97 | 1009.2 |
| 20260903090030 | 15 | 204 | 1.6 | 11.3 | 0.00 | 0.03 | 0.03 | 97 | 1009.3 |
| 20260903085529 | 15 | 192 | 1.6 | 8.0 | 0.00 | 0.03 | 0.03 | 97 | 1009.3 |
| 20260903085028 | 15 | 175 | 1.6 | 8.0 | 0.00 | 0.03 | 0.03 | 97 | 1009.3 |
| 20260903084528 | 15 | 259 | 1.6 | 6.4 | 0.00 | 0.03 | 0.03 | 97 | 1009.5 |
| 20260903084027 | 15 | 185 | 0.0 | 8.0 | 0.00 | 0.03 | 0.03 | 97 | 1009.6 |
| 20260903083526 | 15 | 158 | 1.6 | 8.0 | 0.00 | 0.03 | 0.03 | 97 | 1009.6 |
| 20260903083027 | 15 | 171 | 3.2 | 9.7 | 0.00 | 0.03 | 0.03 | 97 | 1009.6 |
| 20260903082525 | 15 | 175 | 1.6 | 8.0 | 0.00 | 0.03 | 0.03 | 97 | 1009.7 |
| 20260903082023 | 15 | 205 | 1.6 | 8.0 | 0.00 | 0.03 | 0.03 | 97 | 1009.7 |
| 20260903081523 | 15 | 196 | 0.0 | 8.0 | 0.00 | 0.03 | 0.03 | 97 | 1009.8 |
| 20260903081022 | 15 | 203 | 1.6 | 6.4 | 0.00 | 0.03 | 0.03 | 97 | 1009.8 |
| 20260903080522 | 15 | 172 | 1.6 | 4.8 | 0.00 | 0.03 | 0.03 | 98 | 1009.8 |
| 20260903080021 | 15 | 186 | 0.0 | 4.8 | 0.00 | 0.03 | 0.03 | 98 | 1009.8 |
| 20260903075520 | 15 | 154 | 0.0 | 4.8 | 0.00 | 0.03 | 0.03 | 98 | 1009.9 |
| 20260903075022 | 15 | 245 | 0.0 | 4.8 | 0.00 | 0.03 | 0.03 | 98 | 1009.9 |
| 20260903074518 | 15 | 246 | 0.0 | 4.8 | 0.00 | 0.03 | 0.03 | 98 | 1010.0 |
| 20260903074017 | 15 | 232 | 0.0 | 4.8 | 0.00 | 0.03 | 0.03 | 98 | 1010.0 |
| 20260903073619 | 15 | 232 | 0.0 | 4.8 | 0.00 | 0.03 | 0.03 | 98 | 1010.0 |
| 20260903073018 | 15 | 178 | 1.6 | 4.8 | 0.00 | 0.03 | 0.03 | 97 | 1010.0 |
| 20260903072516 | 15 | 178 | 1.6 | 4.8 | 0.00 | 0.03 | 0.03 | 98 | 1010.0 |
| 20260903072015 | 15 | 178 | 0.0 | 3.2 | 0.00 | 0.03 | 0.03 | 98 | 1010.1 |
| 20260903071515 | 15 | 178 | 0.0 | 3.2 | 0.00 | 0.03 | 0.03 | 98 | 1010.1 |
| 20260903071014 | 15 | 178 | 0.0 | 3.2 | 0.00 | 0.03 | 0.03 | 98 | 1010.2 |
| 20260903070515 | 15 | 178 | 0.0 | 6.4 | 0.00 | 0.03 | 0.03 | 98 | 1010.2 |
| 20260903070013 | 14 | 179 | 1.6 | 6.4 | 0.00 | 0.03 | 0.03 | 98 | 1010.3 |
| 20260903065512 | 14 | 180 | 0.0 | 4.8 | 0.00 | 0.03 | 0.03 | 98 | 1010.3 |
| 20260903065012 | 14 | 180 | 0.0 | 4.8 | 0.00 | 0.03 | 0.03 | 98 | 1010.4 |
| 20260903064509 | 13 | 184 | 0.0 | 3.2 | 0.00 | 0.03 | 0.03 | 98 | 1010.5 |
| 20260903064007 | 13 | 305 | 0.0 | 0.0 | 0.00 | 0.03 | 0.03 | 98 | 1010.5 |
| 20260903063506 | 13 | 305 | 0.0 | 0.0 | 0.00 | 0.03 | 0.03 | 98 | 1010.6 |
| 20260903063005 | 13 | 305 | 0.0 | 0.0 | 0.00 | 0.03 | 0.03 | 98 | 1010.6 |
| 20260903062503 | 12 | 305 | 0.0 | 0.0 | 0.00 | 0.03 | 0.03 | 97 | 1010.7 |
| 20260903062001 | 12 | 305 | 0.0 | 0.0 | 0.00 | 0.03 | 0.03 | 98 | 1010.8 |
| 20260903061600 | 12 | 305 | 0.0 | 0.0 | 0.00 | 0.03 | 0.03 | 97 | 1010.8 |
| 20260903061103 | 12 | 305 | 0.0 | 0.0 | 0.00 | 0.03 | 0.03 | 97 | 1010.8 |
| 20260903060557 | 12 | 305 | 0.0 | 0.0 | 0.00 | 0.03 | 0.03 | 97 | 1010.9 |
| 20260903060056 | 12 | 305 | 0.0 | 0.0 | 0.00 | 0.03 | 0.03 | 97 | 1010.9 |
| 20260903055556 | 12 | 305 | 0.0 | 0.0 | 0.00 | 0.03 | 0.03 | 97 | 1011.0 |
| 20260903055054 | 12 | 305 | 0.0 | 0.0 | 0.00 | 0.03 | 0.03 | 97 | 1011.0 |
| 20260903054553 | 12 | 305 | 0.0 | 0.0 | 0.00 | 0.03 | 0.03 | 97 | 1011.1 |
| 20260903054054 | 11 | 305 | 0.0 | 0.0 | 0.00 | 0.03 | 0.03 | 97 | 1011.2 |
| 20260903053555 | 11 | 305 | 0.0 | 0.0 | 0.00 | 0.03 | 0.03 | 97 | 1011.2 |
| 20260903053055 | 11 | 305 | 0.0 | 0.0 | 0.00 | 0.03 | 0.03 | 97 | 1011.3 |